Hoquiam, WA
on Wednesday, November 28, 2012

Wednesday
Previous Day Next Day
Daily Summary
 ActualAverageRecord
Temperature
Mean Temperature °F 43°F  
Max Temperature 53°F 48°F 59°F (2002)
Min Temperature 39°F 38°F 24°F (1985)
Degree Days
Heating Degree Days 19 22  
Month to date heating degree days 532  
Cooling Degree Days 0 0  
Month to date cooling degree days 0  
Year to date cooling degree days 23  
Moisture
Dew Point 42°F   
Average Humidity 88    
Maximum Humidity 97    
Minimum Humidity 76    
Precipitation
Precipitation 0.09 in 0.37 in 2.97 in (2003)
Month to date precipitation 10.41  
Year to date precipitation 56.83  
Wind
Wind Speed 12 mph   
Max Wind Speed 18 mph   
Max Gust Speed 26 mph   
Visibility 9 miles   
Events Rain   

Key: T is trace of precipitation, MM is missing value
Source: NWS Daily Summary
Time(PST)TemperatureDew PointHumidity Pressure Visibility Wind DirectionWind SpeedGust SpeedPrecipitationEvents Conditions
12:53 AM 41.0°F 39.0°F 93% 29.86 in 10.0 miles ENE 12.7 mph - N/A   Clear
1:53 AM 39.9°F 37.9°F 93% 29.84 in 10.0 miles ENE 9.2 mph - N/A   Partly Cloudy
2:53 AM 41.0°F 39.0°F 93% 29.82 in 10.0 miles ENE 9.2 mph - N/A   Scattered Clouds
3:53 AM 41.0°F 37.9°F 89% 29.78 in 10.0 miles ENE 9.2 mph - N/A   Partly Cloudy
4:53 AM 41.0°F 39.0°F 93% 29.75 in 10.0 miles ENE 8.1 mph - N/A   Mostly Cloudy
5:53 AM 42.1°F 39.0°F 89% 29.74 in 10.0 miles NE 12.7 mph - 0.00 in Rain Light Rain
6:53 AM 44.1°F 39.0°F 82% 29.69 in 10.0 miles NE 15.0 mph - 0.01 in   Mostly Cloudy
7:53 AM 43.0°F 37.9°F 82% 29.68 in 10.0 miles NE 17.3 mph - N/A   Overcast
8:53 AM 45.0°F 37.9°F 76% 29.65 in 10.0 miles NE 13.8 mph - 0.00 in Rain Light Rain
9:53 AM 44.1°F 39.0°F 82% 29.64 in 10.0 miles ENE 13.8 mph 21.9 mph 0.00 in   Overcast
10:53 AM 46.0°F 39.9°F 79% 29.60 in 10.0 miles East 17.3 mph - N/A   Overcast
11:53 AM 46.0°F 39.0°F 76% 29.58 in 10.0 miles ENE 15.0 mph - N/A   Mostly Cloudy
12:53 PM 46.9°F 39.9°F 77% 29.57 in 10.0 miles ENE 16.1 mph - 0.00 in Rain Light Rain
1:53 PM 46.9°F 42.1°F 83% 29.55 in 8.0 miles NE 13.8 mph - 0.03 in Rain Light Rain
2:53 PM 46.0°F 43.0°F 89% 29.57 in 10.0 miles ENE 11.5 mph - 0.00 in   Overcast
3:53 PM 46.9°F 43.0°F 86% 29.59 in 10.0 miles East 11.5 mph - 0.00 in Rain Light Rain
4:53 PM 46.0°F 43.0°F 89% 29.60 in 10.0 miles ENE 15.0 mph - 0.01 in   Overcast
5:23 PM 46.4°F 42.8°F 87% 29.59 in 5.0 miles ENE 16.1 mph 21.9 mph 0.00 in Rain Light Rain
5:53 PM 45.0°F 44.1°F 97% 29.61 in 3.0 miles ENE 12.7 mph - 0.02 in Rain Light Rain
6:53 PM 46.9°F 45.0°F 93% 29.63 in 9.0 miles ENE 11.5 mph - 0.01 in Rain Light Rain
7:43 PM 53.6°F 48.2°F 82% 29.64 in 10.0 miles SSE 18.4 mph 26.5 mph 0.00 in   Overcast
7:53 PM 53.1°F 48.9°F 86% 29.66 in 10.0 miles SE 18.4 mph 26.5 mph 0.00 in   Overcast
8:31 PM 48.2°F 46.4°F 93% 29.64 in 10.0 miles ENE 9.2 mph - N/A   Overcast
8:53 PM 48.9°F 46.9°F 93% 29.65 in 10.0 miles ENE 11.5 mph - N/A   Overcast
9:07 PM 48.2°F 46.4°F 93% 29.64 in 9.0 miles ENE 9.2 mph - 0.00 in Rain Light Rain
9:43 PM 48.2°F 46.4°F 93% 29.65 in 5.0 miles ENE 9.2 mph - 0.01 in Rain Light Rain
9:53 PM 46.9°F 46.0°F 97% 29.67 in 6.0 miles ENE 10.4 mph - 0.01 in   Overcast
10:53 PM 46.9°F 45.0°F 93% 29.66 in 10.0 miles ENE 10.4 mph - 0.00 in   Overcast
11:53 PM 46.9°F 45.0°F 93% 29.65 in 10.0 miles ENE 11.5 mph - N/A   Mostly Cloudy
Moon Phase
Nov. 28 Dec. 06 Dec. 13 Dec. 20 Dec. 28
Sunrise:07:37 AM (PST) Moon Rise:04:48 PM (PST)11/28
Sunset:04:29 PM (PST) Moon Set:07:40 AM (PST)11/28

Copyright © 2014 The Weather Underground, Inc.